Weather History for Plainview, TX

Change the Weather History Date:

Friday, December 6, 2013

  Actual Average Record
Temperature  
Mean Temperature 19 °F -  
Max Temperature 24 °F 56 °F 80 °F (1939)
Min Temperature 14 °F 28 °F 2 °F (1950)
Degree Days  
Heating Degree Days 46    
Moisture  
Dew Point 11 °F    
Average Humidity 77    
Maximum Humidity 85    
Minimum Humidity 65    
Precipitation  
Precipitation 0.00 in - - ()
Sea Level Pressure  
Sea Level Pressure 30.25 in    
Wind  
Wind Speed 9 mph (NE)    
Max Wind Speed 15 mph    
Max Gust Speed 17 mph    
Visibility 10 miles    
Events Snow    
Averages and records for this station are not official NWS values.
T = Trace of Precipitation, MM = Missing Value Source: NWS Daily Summary

Daily Weather History Graph

Daily Weather History Graph

Search for Another Location

Airport:

Trip Planner

Search our weather history database for the weather conditions in past years. The results will help you decide how hot, cold, wet, or windy it might be!

Date:

Astronomy

Dec. 06, 2013 Rise Set
Actual Time 7:38 AM CST 5:37 PM CST
Civil Twilight 7:11 AM CST 6:04 PM CST
Nautical Twilight 6:40 AM CST 6:35 PM CST
Astronomical Twilight 6:09 AM CST 7:06 PM CST
Moon 10:52 AM CST (12/6) 10:03 PM CST (12/6)
Length of Visible Light 10h 53m
Length of Day
9h 58m
Waxing Crescent, 19% of the Moon is Illuminated
Dec 6
Waxing Crescent
Dec 9
First Quarter
Dec 17
Full
Dec 25
Last Quarter
Jan 1
New

Hourly Weather History & Observations

Time (CST) Temp. Windchill Dew Point Humidity Pressure Visibility Wind Dir Wind Speed Gust Speed Precip Events Conditions
12:15 AM 17.4 °F 7.1 °F 10.4 °F 74% 30.11 in 4.0 mi NE 8.1 mph - N/A Snow Light Snow
12:35 AM 17.4 °F 7.1 °F 11.3 °F 77% 30.11 in 10.0 mi NE 8.1 mph - N/A Snow Light Snow
12:55 AM 17.4 °F 7.1 °F 10.4 °F 74% 30.13 in 10.0 mi ENE 8.1 mph - N/A   Overcast
1:15 AM 17.4 °F 5.4 °F 9.9 °F 72% 30.12 in 10.0 mi NE 10.4 mph - N/A   Overcast
1:35 AM 17.4 °F 6.2 °F 9.1 °F 70% 30.13 in 10.0 mi NE 9.2 mph - N/A   Overcast
1:55 AM 17.4 °F 6.2 °F 9.5 °F 71% 30.14 in 10.0 mi NE 9.2 mph - N/A   Overcast
2:15 AM 17.4 °F 6.2 °F 10.4 °F 74% 30.12 in 10.0 mi NE 9.2 mph - N/A   Overcast
2:35 AM 17.4 °F 5.4 °F 11.3 °F 77% 30.11 in 10.0 mi NNE 10.4 mph - N/A   Overcast
2:55 AM 17.4 °F 5.4 °F 12.2 °F 80% 30.10 in 10.0 mi NE 10.4 mph - N/A   Mostly Cloudy
3:15 AM 16.0 °F 3.6 °F 10.9 °F 81% 30.11 in 10.0 mi NNE 10.4 mph - N/A   Mostly Cloudy
3:35 AM 14.9 °F 4.0 °F 10.4 °F 82% 30.14 in 10.0 mi NNE 8.1 mph - N/A   Scattered Clouds
3:55 AM 14.9 °F 5.0 °F 10.4 °F 82% 30.16 in 10.0 mi NE 6.9 mph - N/A   Mostly Cloudy
4:15 AM 14.9 °F 5.0 °F 10.4 °F 82% 30.16 in 10.0 mi North 6.9 mph - N/A   Overcast
4:35 AM 14.9 °F 4.0 °F 10.4 °F 82% 30.15 in 10.0 mi North 8.1 mph - N/A   Mostly Cloudy
4:55 AM 14.9 °F 1.6 °F 10.4 °F 82% 30.13 in 10.0 mi North 11.5 mph - N/A   Scattered Clouds
5:15 AM 14.9 °F 0.9 °F 10.4 °F 82% 30.14 in 10.0 mi North 12.7 mph - N/A   Mostly Cloudy
5:35 AM 14.9 °F 0.9 °F 10.4 °F 82% 30.15 in 10.0 mi North 12.7 mph 17.3 mph N/A   Overcast
5:55 AM 14.9 °F 1.6 °F 10.4 °F 82% 30.17 in 10.0 mi North 11.5 mph - N/A   Overcast
6:15 AM 14.9 °F -0.3 °F 10.4 °F 82% 30.17 in 10.0 mi North 15.0 mph - N/A   Overcast
6:35 AM 14.9 °F 2.3 °F 10.2 °F 82% 30.19 in 10.0 mi North 10.4 mph - N/A   Mostly Cloudy
6:55 AM 14.9 °F 4.0 °F 10.2 °F 82% 30.19 in 10.0 mi North 8.1 mph - N/A   Overcast
7:15 AM 14.9 °F 2.3 °F 10.4 °F 82% 30.20 in 10.0 mi North 10.4 mph - N/A   Mostly Cloudy
7:35 AM 14.9 °F 2.3 °F 10.4 °F 82% 30.21 in 10.0 mi North 10.4 mph - N/A   Overcast
7:55 AM 14.9 °F 1.6 °F 10.4 °F 82% 30.21 in 10.0 mi North 11.5 mph - N/A   Overcast
8:15 AM 14.9 °F 4.0 °F 10.4 °F 82% 30.22 in 10.0 mi North 8.1 mph - N/A   Overcast
8:35 AM 15.1 °F 5.2 °F 10.2 °F 81% 30.22 in 10.0 mi North 6.9 mph - N/A   Overcast
8:55 AM 16.5 °F 5.1 °F 10.8 °F 78% 30.24 in 10.0 mi North 9.2 mph - N/A   Overcast
9:15 AM 16.9 °F 4.8 °F 10.4 °F 76% 30.25 in 10.0 mi North 10.4 mph - N/A   Mostly Cloudy
9:35 AM 17.4 °F 6.2 °F 10.8 °F 75% 30.26 in 10.0 mi North 9.2 mph - N/A   Overcast
9:55 AM 17.4 °F 6.2 °F 10.6 °F 75% 30.27 in 10.0 mi North 9.2 mph - N/A   Mostly Cloudy
10:15 AM 17.4 °F 8.0 °F 10.8 °F 75% 30.27 in 10.0 mi North 6.9 mph - N/A   Mostly Cloudy
10:35 AM 17.4 °F 10.4 °F 10.4 °F 74% 30.28 in 10.0 mi NNE 4.6 mph - N/A   Scattered Clouds
10:55 AM 18.7 °F 9.5 °F 11.1 °F 72% 30.28 in 10.0 mi NNE 6.9 mph - N/A   Mostly Cloudy
11:15 AM 18.1 °F 7.9 °F 10.9 °F 73% 30.28 in 10.0 mi NNE 8.1 mph - N/A   Scattered Clouds
11:35 AM 19.8 °F 9.1 °F 12.7 °F 74% 30.29 in 10.0 mi NNE 9.2 mph - N/A   Scattered Clouds
11:55 AM 19.9 °F 7.9 °F 12.9 °F 74% 30.29 in 10.0 mi North 11.5 mph 17.3 mph N/A   Mostly Cloudy
12:15 PM 19.9 °F 9.3 °F 12.9 °F 74% 30.29 in 10.0 mi NNE 9.2 mph - N/A   Mostly Cloudy
12:35 PM 19.9 °F 9.3 °F 13.5 °F 76% 30.28 in 10.0 mi NE 9.2 mph - N/A   Mostly Cloudy
12:55 PM 20.5 °F 10.0 °F 12.9 °F 73% 30.27 in 10.0 mi NNE 9.2 mph - N/A   Mostly Cloudy
1:15 PM 20.8 °F 11.2 °F 13.6 °F 74% 30.27 in 10.0 mi NNE 8.1 mph - N/A   Mostly Cloudy
1:35 PM 21.4 °F 13.8 °F 13.3 °F 71% 30.27 in 10.0 mi NNE 5.8 mph - N/A   Scattered Clouds
1:55 PM 22.3 °F 12.2 °F 14.0 °F 71% 30.26 in 10.0 mi NNE 9.2 mph - N/A   Mostly Cloudy
2:15 PM 22.5 °F 13.2 °F 13.8 °F 69% 30.25 in 10.0 mi NNE 8.1 mph - N/A   Mostly Cloudy
2:35 PM 22.8 °F 12.9 °F 13.6 °F 68% 30.25 in 10.0 mi NNE 9.2 mph - N/A   Scattered Clouds
2:55 PM 23.4 °F 15.2 °F 13.5 °F 66% 30.25 in 10.0 mi North 6.9 mph - N/A   Scattered Clouds
3:15 PM 22.8 °F 15.5 °F 13.3 °F 67% 30.25 in 10.0 mi North 5.8 mph - N/A   Mostly Cloudy
3:35 PM 24.8 °F 16.9 °F 14.7 °F 66% 30.25 in 10.0 mi NNE 6.9 mph - N/A   Scattered Clouds
3:55 PM 23.9 °F 14.2 °F 13.6 °F 65% 30.25 in 10.0 mi NE 9.2 mph - N/A   Scattered Clouds
4:15 PM 24.1 °F 15.2 °F 13.8 °F 65% 30.26 in 10.0 mi NE 8.1 mph - N/A   Scattered Clouds
4:35 PM 22.8 °F 12.9 °F 13.1 °F 66% 30.26 in 10.0 mi NE 9.2 mph - N/A   Scattered Clouds
5:55 PM 20.3 °F 12.5 °F 12.7 °F 73% 30.30 in 10.0 mi ENE 5.8 mph - N/A   Clear
6:15 PM 19.9 °F 12.1 °F 13.3 °F 75% 30.31 in 10.0 mi ENE 5.8 mph - N/A   Clear
6:35 PM 19.9 °F 11.1 °F 13.1 °F 75% 30.31 in 10.0 mi ENE 6.9 mph - N/A   Clear
6:55 PM 18.0 °F 8.7 °F 12.0 °F 78% 30.32 in 10.0 mi ENE 6.9 mph - N/A   Clear
7:15 PM 18.7 °F 9.5 °F 12.4 °F 76% 30.32 in 10.0 mi ENE 6.9 mph - N/A   Clear
7:35 PM 17.6 °F 8.2 °F 11.7 °F 78% 30.33 in 10.0 mi ENE 6.9 mph - N/A   Clear
7:55 PM 17.4 °F 8.0 °F 11.3 °F 77% 30.33 in 10.0 mi East 6.9 mph - N/A   Clear
8:15 PM 17.4 °F 9.1 °F 12.0 °F 79% 30.33 in 10.0 mi East 5.8 mph - N/A   Clear
8:35 PM 17.1 °F 8.7 °F 11.7 °F 79% 30.34 in 10.0 mi East 5.8 mph - N/A   Clear
8:55 PM 16.7 °F 7.2 °F 11.7 °F 81% 30.35 in 10.0 mi East 6.9 mph - N/A   Clear
9:15 PM 16.2 °F 7.6 °F 11.3 °F 81% 30.35 in 10.0 mi East 5.8 mph - N/A   Clear
9:35 PM 14.9 °F 7.5 °F 10.4 °F 82% 30.36 in 10.0 mi ENE 4.6 mph - N/A   Clear
9:55 PM 14.9 °F 7.5 °F 10.9 °F 84% 30.36 in 10.0 mi East 4.6 mph - N/A   Clear
10:15 PM 14.9 °F 7.5 °F 11.1 °F 85% 30.37 in 10.0 mi East 4.6 mph - N/A   Clear
10:35 PM 14.9 °F 6.1 °F 10.8 °F 84% 30.38 in 10.0 mi East 5.8 mph - N/A   Clear
10:55 PM 14.9 °F 6.1 °F 10.4 °F 82% 30.39 in 10.0 mi East 5.8 mph - N/A   Clear
11:15 PM 14.9 °F 3.1 °F 10.2 °F 82% 30.39 in 10.0 mi East 9.2 mph - N/A   Clear
11:35 PM 14.9 °F 4.0 °F 10.0 °F 81% 30.39 in 10.0 mi East 8.1 mph - N/A   Clear
11:55 PM 14.9 °F 5.0 °F 10.2 °F 82% 30.39 in 10.0 mi East 6.9 mph - N/A   Clear